Flag for U.S.A. Weather past 2 weeks in Angels Camp, California, U.S.A.

Now
73 °F

Clear.


Feels Like: 77 °F
Forecast: 65 / 104 °F
Wind: 3 mph from Northwest

Location: Modesto City-County-Sham Field

Current Time: Aug 1, 2014 at 5:35:18 AM

Latest Report: Aug 1, 2014 at 4:53 AM


Visibility: 10 mi

Pressure: 29.81 "Hg

Humidity: 41%

Dew point: 48 °F

Location of Angels CampLocation

Historic Weather in Angels Camp — Graph

°F

Angels Camp temperature yesterday

Maximum temperature yesterday: 102 °F (at 4:53 PM)
Minimum temperature yesterday: 73 °F (at 6:53 AM)
Average temperature yesterday: 87 °F

Past Weeks' High & Low Weather Summary

 TemperatureHumidityPressure
High102 °F (Jul 31, 4:53 PM)84% (Jul 23, 3:53 AM)30.12 "Hg (Jul 23, 3:53 AM)
Low62 °F (Jul 18, 3:53 AM)12% (Jul 25, 5:53 PM)29.76 "Hg (Jul 25, 5:53 PM)
Average80 °F42%29.91 "Hg
* Reported Jul 17 3:53 AM — Aug 1 3:53 AM, Angels Camp, Weather by CustomWeather, © 2014

Note: Actual official high and low records may vary slightly from our data, if they occured in-between our weather recording intervals... More about our weather records

Advertising

Angels Camp weather history for previous 24 hours

 ConditionsComfort  
Time TempWeatherWind HumidityBarometerVisibility
3:53 AM
Aug 1
74 °FClear.5 mph40%29.81 "Hg10 mi
2:53 AM71 °FClear.No wind57%29.82 "Hg10 mi
1:53 AM77 °FClear.No wind32%29.82 "Hg10 mi
12:53 AM77 °FClear.No wind39%29.83 "Hg10 mi
11:53 PM
Jul 31
81 °FClear.3 mph29%29.82 "Hg10 mi
10:53 PM84 °FClear.6 mph25%29.82 "Hg10 mi
9:53 PM87 °FClear.6 mph27%29.82 "Hg10 mi
8:53 PM91 °FSunny.7 mph25%29.80 "Hg10 mi
7:53 PM95 °FSunny.8 mph22%29.79 "Hg10 mi
6:53 PM99 °FSunny.13 mph15%29.79 "Hg10 mi
5:53 PM101 °FSunny.12 mph19%29.79 "Hg10 mi
4:53 PM102 °FSunny.10 mph16%29.80 "Hg10 mi
3:53 PM100 °FSunny.13 mph15%29.82 "Hg10 mi
2:53 PM100 °FSunny.12 mph19%29.84 "Hg10 mi
1:53 PM97 °FSunny.10 mph22%29.86 "Hg10 mi
12:53 PM93 °FSunny.10 mph21%29.88 "Hg10 mi
11:53 AM92 °FSunny.8 mph21%29.90 "Hg10 mi
10:53 AM88 °FSunny.7 mph30%29.90 "Hg10 mi
9:53 AM83 °FSunny.7 mph36%29.91 "Hg10 mi
8:53 AM79 °FSunny.5 mph42%29.91 "Hg10 mi
7:53 AM76 °FSunny.7 mph45%29.90 "Hg10 mi
6:53 AM73 °FClear.5 mph50%29.89 "Hg10 mi
5:53 AM74 °FClear.5 mph48%29.88 "Hg10 mi
Weather by CustomWeather, © 2014

See weather overviewHow to use our weather pages